949  
ASUS43 KOAX 272010  
RWRNE  
 
WEATHER ROUNDUP FOR NEBRASKA  
NATIONAL WEATHER SERVICE OMAHA NE  
200 PM CST THU FEB 27 2020  
 
NOTES: SATELLITE DATA IS BEING USED TO AUGMENT CLOUD COVER ABOVE  
12000 FEET.  
"FAIR" INDICATES FEW OR NO CLOUDS BELOW 12,000 FEET WITH NO  
SIGNIFICANT WEATHER AND/OR S TO VISIBILITY
.  
 
 
NEZ001>004-019>022-054>056-272100-  
NEBRASKA PANHANDLE  
 
CITY SKY/WX TMP DP RH WIND PRES REMARKS
 
SCOTTSBLUFF FAIR 46 19 34 NW26G36 30.20F  
ALLIANCE PTSUNNY 38 28 67 N15 30.18F WCI 29  
CHADRON FAIR 36 30 79 SW5 30.19F WCI 32  
GORDON CLOUDY 34 29 79 NW10 30.17F WCI 26  
KIMBALL CLOUDY 41 19 41 NW25G36 30.21F  
SIDNEY PTSUNNY 42 22 44 N28G40 30.18F  

 
 
NEZ057>060-069>072-079>082-272100-  
SOUTHWEST NEBRASKA  
 
CITY SKY/WX TMP DP RH WIND PRES REMARKS
 
NORTH PLATTE PTSUNNY 40 30 67 N14G25 30.17S WCI 32  
IMPERIAL CLOUDY 44 28 53 N25G37 30.19R  
LEXINGTON PTSUNNY 36 33 88 NW12 30.17F WCI 28  
MCCOOK CLOUDY 38 33 82 N12 30.18R WCI 30  
OGALLALA PTSUNNY 43 29 56 N21 30.18S  

 
 
NEZ005>010-023>029-035>040-094-272100-  
NORTH CENTRAL NEBRASKA  
 
CITY SKY/WX TMP DP RH WIND PRES REMARKS
 
VALENTINE FAIR 42 23 46 NW17G29 30.14F  
AINSWORTH PTSUNNY 39 26 59 NW17 30.14S WCI 30  
BROKEN BOW CLOUDY 37 27 67 NW13 30.14F WCI 29  
O'NEILL CLOUDY 35 26 68 NW9 30.14F WCI 28  
ORD CLOUDY 39 27 62 NW15 30.13F WCI 31  
THEDFORD PTSUNNY 38 29 72 NW18G24 30.16F WCI 28  

 
 
NEZ041-046>049-061>064-073>077-083>087-272100-  
SOUTH CENTRAL NEBRASKA  
 
CITY SKY/WX TMP DP RH WIND PRES REMARKS
 
GRAND ISLAND CLOUDY 38 33 82 NW12 30.15S WCI 30  
AURORA CLOUDY 40 30 68 NW16G22 30.14R WCI 31  
HASTINGS LGT SNOW 34 32 92 NW9 30.15S FOG WCI 27  
HEBRON DRIZZLE 41 31 67 NW14G20 30.14R  
HOLDREGE LGT SNOW 34 33 96 N13 30.16F WCI 25  
KEARNEY LGT RAIN 35 34 96 NW12 30.16S WCI 27  

 
 
NEZ011>018-030>034-042>045-272100-  
NORTHEAST NEBRASKA  
 
CITY SKY/WX TMP DP RH WIND PRES REMARKS
 
NORFOLK PTSUNNY 38 19 46 NW10 30.13F WCI 31  
ALBION CLOUDY 39 25 58 NW16 30.13S WCI 30  
BLAIR FAIR 38 21 52 N7 30.12F WCI 32  
COLUMBUS PTSUNNY 40 24 53 N8 30.14F WCI 34  
FREMONT PTSUNNY 39 23 52 N7 30.14F WCI 34  
TEKAMAH FAIR 38 22 52 N6 30.14F WCI 33  
WAYNE PTSUNNY 36 21 54 NW5 30.14F WCI 32  

 
 
NEZ050>053-065>068-078-088>093-272100-  
SOUTHEAST NEBRASKA  
 
CITY SKY/WX TMP DP RH WIND PRES REMARKS
 
LINCOLN CLOUDY 43 22 43 N12 30.14S  
OMAHA EPPLEY PTSUNNY 38 22 52 NW5 30.13F WCI 34  
BEATRICE PTSUNNY 45 27 50 NW16 30.12R  
FALLS CITY N/A 41 24 51 N9 30.11S  
NEBRASKA CITY CLOUDY 42 21 43 N9 30.11F  
PLATTSMOUTH CLOUDY 40 22 48 NW8G17 30.11F WCI 35  

 
 
NEZ044-045-051>053-067-272100-  
OMAHA AREA  
 
CITY SKY/WX TMP DP RH WIND PRES REMARKS
 
OMAHA EPPLEY PTSUNNY 38 22 52 NW5 30.13F WCI 34  
BLAIR FAIR 38 21 52 N7 30.12F WCI 32  
FREMONT PTSUNNY 39 23 52 N7 30.14F WCI 34  
MILLARD CLOUDY 40 18 41 N9 30.13F WCI 35  
OFFUTT AFB CLOUDY 40 18 41 N8 30.13S WCI 35  
PLATTSMOUTH CLOUDY 40 22 48 NW8G17 30.11F WCI 35  
WAHOO CLOUDY 40 22 49 N6 30.13S  

 
 
 
CLICK HERE TO GO TO PREVIOUS BULLETINS.

The Nexlab NE Page Main Text Page